Find OneWeb SL0668

NORAD ID: 56711 Int'l Des: 2023-068 Owner: ONEWEBN Country: UK Constellation: oneweb operational
LEOCIRCULARPOLARONEWEB_TYPE

Live-Position

3D-Globus wird geladen...

Über OneWeb SL0668

Beschreibung wird geladen...

Nächste Überflüge

Passes for default location (London). Set your location on the main map for personalized predictions.

Höhenverlauf

Loading altitude history...

Zweizeiliger Elementsatz

1 56711U 23068B 26104.66747693 .00000096 00000-0 21641-3 0 9992
2 56711 87.9074 241.3878 0001270 102.4598 257.6675 13.16594244143420
Epoch: 14. Apr. 2026 • Age: 10 hours

Aktueller Status

Höhe 1204.4 km
Geschwindigkeit 7.26 km/s
Subsatellitenpunkt 47.55°N, 171.36°W
Startdatum 20. Mai 2023
Alter 2.9 years
Typ internet

Technische Details

Klassifizierung Payload
Masse 148.00 kg
Trockenmasse 140.00 kg
Gesamtmasse 148.00 kg
Länge 1.30 m
Durchmesser 1.00 m
Spannweite 5.00 m
Form Trapezoid+2 pan
Hersteller ONEWUS
Bus-Typ ARROW
Phasenstatus In Orbit
Besitzer/Staat ONEWEBN/UK

Most Searched